Location: Zagreb
(45.8000°N, 16.0000°E)
Time: 21:12:01
(UTC+01:00)

deb Explorer IX - Pass Details

Date: 06 October 2020
Orbit: 537 x 1106 km, 38.8° (Epoch: 30 October)

Event Time Altitude Azimuth Distance (km) Brightness Sun altitude
Rises 14:00:48 0° 207° (SSW) 3,709 ? 36.0°
Reaches altitude 10° 14:04:37 10° 188° (S) 2,656 ? 35.7°
Maximum altitude 14:08:22 16° 152° (SSE) 2,118 ? 35.4°
Drops below altitude 10° 14:11:50 10° 115° (ESE) 2,420 ? 35.2°
Sets 14:15:04 0° 94° (E) 3,232 ? 34.9°
